Bergplaas, South Africa

10:25 AM SAST on April 21, 2018 (GMT +0200)
Bergplaas

Weather History for 68828 - January, 2013

Change the Weather History Date:

Wednesday, January 2, 2013

  Actual Average Record
Temperature  
Mean Temperature 70 °F -  
Max Temperature 83 °F 74 °F - ()
Min Temperature 56 °F 58 °F - ()
Cooling Degree Days 4    
Growing Degree Days 20 (Base 50)    
Moisture  
Dew Point 56 °F    
Average Humidity 62    
Maximum Humidity 88    
Minimum Humidity 34    
Precipitation  
Precipitation 0.00 in - - ()
Sea Level Pressure  
Sea Level Pressure 29.81 in    
Wind  
Wind Speed 8 mph ()    
Max Wind Speed 13 mph    
Max Gust Speed -    
Visibility 13.2 miles    
Events      
T = Trace of Precipitation, MM = Missing Value Source: Averaged Metar Reports

Daily Weather History Graph

Daily Weather History Graph

Search for Another Location

Airport or City:

Astronomy

Jan. 02, 2013 Rise Set
Actual Time 5:23 AM SAST 7:45 PM SAST
Civil Twilight 4:54 AM SAST 8:14 PM SAST
Nautical Twilight 4:18 AM SAST 8:49 PM SAST
Astronomical Twilight 3:39 AM SAST 9:28 PM SAST
Moon 10:40 PM SAST (1/2) 10:00 AM SAST (1/2)
Length of Visible Light 15h 19m
Length of Day
14h 21m
Waning Gibbous, 78% of the Moon is Illuminated
Jan 2
Waning Gibbous
Jan 5
Last Quarter
Jan 11
New
Jan 19
First Quarter
Jan 27
Full

Hourly Weather History & Observations

Time (SAST) Temp. Heat Index Dew Point Humidity Pressure Visibility Wind Dir Wind Speed Gust Speed Precip Events Conditions
12:00 AM 60.8 °F - 55.4 °F 82% 30.04 in 6.2 mi East 12.7 mph - N/A   Scattered Clouds
1:00 AM 59.0 °F - 53.6 °F 82% 30.01 in - East 11.5 mph - N/A   Clear
2:00 AM 58 °F - 54 °F 80% 29.96 in 25 mi East 10.4 mph - -  
2:00 AM 59.0 °F - 53.6 °F 82% 29.95 in - East 10.4 mph - N/A   Clear
3:00 AM 59.0 °F - 53.6 °F 82% 29.92 in - East 10.4 mph - N/A   Clear
4:00 AM 57.2 °F - 53.6 °F 88% 29.89 in - East 6.9 mph - N/A   Clear
5:00 AM 57 °F - 53 °F 81% 29.89 in 19 mi East 5.8 mph - -  
5:00 AM 57.2 °F - 53.6 °F 88% 29.89 in - East 6.9 mph - N/A   Clear
6:00 AM 57.2 °F - 51.8 °F 82% 29.86 in - ENE 3.5 mph - N/A   Clear
7:00 AM 62.6 °F - 55.4 °F 77% 29.86 in - East 5.8 mph - N/A   Clear
8:00 AM 68 °F - 56 °F 57% 29.85 in 19 mi East 5.8 mph - -  
8:00 AM 68.0 °F - 55.4 °F 64% 29.86 in - East 4.6 mph - N/A   Clear
9:00 AM 73.4 °F - 55.4 °F 53% 29.83 in - Variable 3.5 mph - N/A   Clear
10:00 AM 77.0 °F - 57.2 °F 50% 29.80 in - Variable 4.6 mph - N/A   Clear
11:00 AM 76 °F - 58 °F 43% 29.78 in 19 mi SSE 4.6 mph - -  
11:00 AM 77.0 °F - 55.4 °F 47% 29.80 in - South 6.9 mph - N/A   Clear
12:00 PM 77.0 °F - 55.4 °F 47% 29.80 in - SE 6.9 mph - N/A   Clear
1:00 PM 80.6 °F 81.1 °F 59.0 °F 48% 29.74 in - ESE 8.1 mph - N/A   Clear
2:00 PM 81 °F - 57 °F 34% 29.71 in 12 mi ESE 9.2 mph - -  
2:00 PM 80.6 °F 80.8 °F 57.2 °F 45% 29.74 in - East 8.1 mph - N/A   Clear
3:00 PM 80.6 °F 81.1 °F 59.0 °F 48% 29.71 in - ESE 8.1 mph - N/A   Clear
4:00 PM 78.8 °F - 57.2 °F 47% 29.68 in - SE 10.4 mph - N/A   Clear
5:00 PM 78 °F - 55 °F 34% 29.69 in 12 mi SSE 8.1 mph - -  
5:00 PM 77.0 °F - 55.4 °F 47% 29.71 in - SSE 6.9 mph - N/A   Clear
6:00 PM 78.8 °F - 53.6 °F 42% 29.71 in - SW 6.9 mph - N/A   Clear
7:00 PM 73.4 °F - 51.8 °F 47% 29.74 in - SW 11.5 mph - N/A   Clear
8:00 PM 69 °F - 57 °F 58% 29.76 in 12 mi SW 9.2 mph - -  
8:00 PM 68.0 °F - 57.2 °F 68% 29.77 in - SW 10.4 mph - N/A   Clear
9:00 PM 68.0 °F - 59.0 °F 73% 29.77 in 6.2 mi WSW 10.4 mph - N/A   Scattered Clouds
10:00 PM 66.2 °F - 59.0 °F 78% 29.77 in - WNW 9.2 mph - N/A   Clear
11:00 PM 62.6 °F - 57.2 °F 82% 29.77 in - West 8.1 mph - N/A   Clear